• In Sweden
  • List of Countries
  • For 7 days
  • Water Temperature
  • Satellite Maps
  • Weather Map
  • Weather Widgets
  • user-avatar
    Login

    Hourly Weather Vorylevo

    Today, 22 July, Sunday

    Time Temperature Precipitation Wind Pressure Humidity
    00:00 +18°C° 0 mm 3 mps 744 mmHg 97%
    01:00 +18°C° 0 mm 3 mps 744 mmHg 97%
    02:00 +18°C° 0 mm 2 mps 744 mmHg 98%
    03:00 +18°C° 0 mm 2 mps 744 mmHg 98%
    04:00 +18°C° 0 mm 3 mps 744 mmHg 97%
    05:00 +18°C° 0 mm 3 mps 744 mmHg 97%
    06:00 +19°C° 0 mm 3 mps 745 mmHg 94%
    07:00 +20°C° 0 mm 3 mps 745 mmHg 92%
    08:00 +20°C° 0 mm 3 mps 745 mmHg 89%
    09:00 +21°C° 0 mm 4 mps 745 mmHg 85%
    10:00 +22°C° 0 mm 4 mps 745 mmHg 81%
    11:00 +23°C° 0 mm 4 mps 745 mmHg 78%
    12:00 +23°C° 0.1 mm 4 mps 745 mmHg 76%
    13:00 +25°C° 0.1 mm 4 mps 745 mmHg 74%
    14:00 +25°C° 0.1 mm 4 mps 745 mmHg 72%
    15:00 +25°C° 0.3 mm 4 mps 745 mmHg 74%
    16:00 +25°C° 0.3 mm 3 mps 745 mmHg 77%
    17:00 +24°C° 0.3 mm 3 mps 745 mmHg 79%
    18:00 +23°C° 0.2 mm 2 mps 745 mmHg 84%
    19:00 +21°C° 0.2 mm 2 mps 745 mmHg 88%
    20:00 +20°C° 0.2 mm 2 mps 745 mmHg 92%
    21:00 +19°C° 0 mm 2 mps 745 mmHg 94%
    22:00 +19°C° 0 mm 2 mps 745 mmHg 95%
    23:00 +18°C° 0 mm 2 mps 745 mmHg 96%

    Tomorrow, 23 July, Monday

    Time Temperature Precipitation Wind Pressure Humidity
    00:00 +18°C° 0 mm 2 mps 745 mmHg 96%
    01:00 +17°C° 0 mm 2 mps 746 mmHg 97%
    02:00 +17°C° 0 mm 2 mps 746 mmHg 98%
    03:00 +17°C° 0 mm 2 mps 746 mmHg 97%
    04:00 +17°C° 0 mm 2 mps 746 mmHg 97%
    05:00 +18°C° 0 mm 3 mps 746 mmHg 96%
    06:00 +18°C° 0 mm 3 mps 746 mmHg 92%
    07:00 +19°C° 0 mm 3 mps 746 mmHg 88%
    08:00 +20°C° 0 mm 4 mps 746 mmHg 83%
    09:00 +21°C° 0 mm 4 mps 746 mmHg 80%
    10:00 +22°C° 0 mm 4 mps 747 mmHg 76%
    11:00 +22°C° 0 mm 4 mps 747 mmHg 73%
    12:00 +23°C° 0 mm 4 mps 746 mmHg 69%
    13:00 +25°C° 0 mm 4 mps 746 mmHg 65%
    14:00 +25°C° 0 mm 4 mps 746 mmHg 61%
    15:00 +25°C° 0.1 mm 4 mps 746 mmHg 63%
    16:00 +25°C° 0.1 mm 4 mps 746 mmHg 66%
    17:00 +24°C° 0.1 mm 3 mps 746 mmHg 68%
    18:00 +22°C° 0 mm 3 mps 746 mmHg 72%
    19:00 +20°C° 0 mm 3 mps 746 mmHg 77%
    20:00 +19°C° 0 mm 3 mps 747 mmHg 81%
    21:00 +18°C° 0 mm 3 mps 747 mmHg 84%
    22:00 +17°C° 0 mm 2 mps 747 mmHg 87%
    23:00 +16°C° 0 mm 2 mps 747 mmHg 89%

    Day after tomorrow, 24 July, Tuesday

    Time Temperature Precipitation Wind Pressure Humidity
    00:00 +15°C° 0 mm 2 mps 747 mmHg 91%
    01:00 +15°C° 0 mm 2 mps 747 mmHg 93%
    02:00 +14°C° 0 mm 2 mps 747 mmHg 95%
    03:00 +14°C° 0 mm 3 mps 747 mmHg 94%
    04:00 +14°C° 0 mm 3 mps 747 mmHg 93%
    05:00 +16°C° 0 mm 3 mps 747 mmHg 92%
    06:00 +16°C° 0.1 mm 3 mps 747 mmHg 92%
    07:00 +16°C° 0.1 mm 3 mps 747 mmHg 92%
    08:00 +17°C° 0.1 mm 3 mps 748 mmHg 92%
    09:00 +17°C° 0.2 mm 3 mps 748 mmHg 90%
    10:00 +18°C° 0.2 mm 4 mps 748 mmHg 88%
    11:00 +19°C° 0.2 mm 4 mps 748 mmHg 87%
    12:00 +19°C° 0.2 mm 4 mps 748 mmHg 87%
    13:00 +20°C° 0.2 mm 4 mps 748 mmHg 88%
    14:00 +20°C° 0.2 mm 4 mps 748 mmHg 88%
    15:00 +20°C° 0 mm 3 mps 748 mmHg 87%
    16:00 +21°C° 0 mm 3 mps 748 mmHg 86%
    17:00 +22°C° 0 mm 3 mps 748 mmHg 86%
    18:00 +21°C° 0 mm 3 mps 748 mmHg 88%
    19:00 +20°C° 0 mm 2 mps 748 mmHg 91%
    20:00 +20°C° 0 mm 2 mps 748 mmHg 94%
    21:00 +19°C° 0 mm 2 mps 748 mmHg 95%
    22:00 +19°C° 0 mm 2 mps 748 mmHg 95%
    23:00 +19°C° 0 mm 2 mps 748 mmHg 95%

    25 July, Wednesday

    Time Temperature Precipitation Wind Pressure Humidity
    00:00 +18°C° 0.1 mm 2 mps 748 mmHg 96%
    01:00 +18°C° 0.1 mm 2 mps 749 mmHg 96%
    02:00 +18°C° 0.1 mm 2 mps 749 mmHg 97%
    03:00 +18°C° 0.7 mm 2 mps 749 mmHg 97%
    04:00 +19°C° 0.7 mm 2 mps 749 mmHg 97%
    05:00 +19°C° 0.7 mm 3 mps 749 mmHg 97%
    06:00 +20°C° 0.1 mm 3 mps 750 mmHg 95%
    07:00 +21°C° 0.1 mm 3 mps 750 mmHg 93%
    08:00 +22°C° 0.1 mm 3 mps 750 mmHg 90%
    09:00 +24°C° 0 mm 3 mps 750 mmHg 80%
    10:00 +26°C° 0 mm 3 mps 750 mmHg 71%
    11:00 +28°C° 0 mm 4 mps 750 mmHg 61%
    12:00 +28°C° 0 mm 4 mps 750 mmHg 57%
    13:00 +29°C° 0 mm 4 mps 750 mmHg 54%
    14:00 +30°C° 0 mm 4 mps 750 mmHg 51%
    15:00 +29°C° 0 mm 3 mps 750 mmHg 54%
    16:00 +29°C° 0 mm 3 mps 750 mmHg 57%
    17:00 +28°C° 0 mm 3 mps 750 mmHg 60%
    18:00 +26°C° 0 mm 3 mps 750 mmHg 66%
    19:00 +24°C° 0 mm 3 mps 750 mmHg 72%
    20:00 +21°C° 0 mm 2 mps 750 mmHg 77%
    21:00 +21°C° 0 mm 2 mps 751 mmHg 80%
    22:00 +20°C° 0 mm 2 mps 751 mmHg 82%
    23:00 +19°C° 0 mm 2 mps 751 mmHg 84%

    26 July, Thursday

    Time Temperature Precipitation Wind Pressure Humidity
    00:00 +18°C° 0 mm 2 mps 751 mmHg 85%
    01:00 +18°C° 0 mm 2 mps 751 mmHg 85%
    02:00 +17°C° 0 mm 2 mps 751 mmHg 86%
    03:00 +18°C° 0 mm 2 mps 752 mmHg 85%
    04:00 +18°C° 0 mm 2 mps 752 mmHg 84%
    05:00 +18°C° 0 mm 2 mps 752 mmHg 84%
    06:00 +20°C° 0 mm 2 mps 752 mmHg 80%
    07:00 +22°C° 0 mm 3 mps 752 mmHg 75%
    08:00 +25°C° 0 mm 3 mps 753 mmHg 71%
    09:00 +26°C° 0 mm 3 mps 753 mmHg 64%
    10:00 +28°C° 0 mm 4 mps 753 mmHg 58%
    11:00 +30°C° 0 mm 4 mps 753 mmHg 51%
    12:00 +30°C° 0 mm 4 mps 753 mmHg 49%
    13:00 +30°C° 0 mm 4 mps 753 mmHg 48%
    14:00 +32°C° 0 mm 4 mps 753 mmHg 47%
    15:00 +30°C° 0 mm 3 mps 753 mmHg 51%
    16:00 +29°C° 0 mm 3 mps 753 mmHg 56%
    17:00 +29°C° 0 mm 3 mps 753 mmHg 60%
    18:00 +27°C° 0 mm 3 mps 753 mmHg 66%
    19:00 +25°C° 0 mm 2 mps 753 mmHg 71%
    20:00 +24°C° 0 mm 2 mps 753 mmHg 77%
    21:00 +23°C° 0 mm 2 mps 753 mmHg 78%
    22:00 +21°C° 0 mm 2 mps 753 mmHg 80%
    23:00 +21°C° 0 mm 2 mps 754 mmHg 81%

    27 July, Friday

    Time Temperature Precipitation Wind Pressure Humidity
    00:00 +21°C° 0 mm 2 mps 754 mmHg 82%
    01:00 +20°C° 0 mm 2 mps 754 mmHg 83%
    02:00 +20°C° 0 mm 2 mps 754 mmHg 84%
    03:00 +20°C° 0.1 mm 2 mps 754 mmHg 85%
    04:00 +20°C° 0.1 mm 2 mps 754 mmHg 86%
    05:00 +20°C° 0.1 mm 2 mps 754 mmHg 87%
    06:00 +21°C° 0 mm 2 mps 755 mmHg 83%
    07:00 +24°C° 0 mm 2 mps 755 mmHg 78%
    08:00 +26°C° 0 mm 2 mps 755 mmHg 74%
    09:00 +27°C° 0.1 mm 3 mps 755 mmHg 68%
    10:00 +28°C° 0.1 mm 3 mps 755 mmHg 62%
    11:00 +30°C° 0.1 mm 3 mps 755 mmHg 56%
    12:00 +30°C° 0 mm 3 mps 755 mmHg 55%
    13:00 +30°C° 0 mm 3 mps 754 mmHg 53%
    14:00 +31°C° 0 mm 3 mps 754 mmHg 52%
    15:00 +30°C° 0 mm 3 mps 754 mmHg 56%
    16:00 +30°C° 0 mm 2 mps 754 mmHg 59%
    17:00 +29°C° 0 mm 2 mps 754 mmHg 62%
    18:00 +27°C° 0.2 mm 2 mps 754 mmHg 68%
    19:00 +25°C° 0.2 mm 2 mps 754 mmHg 75%
    20:00 +24°C° 0.2 mm 2 mps 755 mmHg 81%
    21:00 +23°C° 0 mm 2 mps 755 mmHg 82%
    22:00 +21°C° 0 mm 2 mps 755 mmHg 84%
    23:00 +20°C° 0 mm 2 mps 755 mmHg 85%
    Show more